Preview of NWS' New Version of Forecast
This preview is not operational and should not be used for support decisions.

Regional Weather Roundup (RWR)

Issued by National Weather Service (NWS)

                            
000
ASUS46 KSEW 240810
RWRWA 

WASHINGTON REGIONAL WEATHER ROUNDUP
NATIONAL WEATHER SERVICE SEATTLE WA
100 AM PDT WED APR 24 2019

NOTE:"FAIR" INDICATES FEW OR NO CLOUDS BELOW 12,000 FEET WITH NO 
SIGNIFICANT WEATHER AND/OR OBSTRUCTIONS TO VISIBILITY.

WAZ507-509-555>559-240900-
SEATTLE, TACOMA, EVERETT, AND VICINITY
  
CITY           SKY/WX    TMP DP  RH WIND       PRES   REMARKS
EVERETT        CLOUDY    46  37  71 N6        30.27R                  
BOEING FIELD   CLOUDY    50  39  66 E5        30.28R                  
RENTON         CLOUDY    50  40  68 N5        30.27R                  
SEATAC AIRPORT CLOUDY    49  39  68 NE10      30.27R                  
JBLM-MCCHORD   CLOUDY    47  43  87 SW7       30.27R                  
PUYALLUP       CLOUDY    46  39  76 CALM      30.27R                  
BREMERTON      CLOUDY    47  40  76 NE5       30.27R                  
JBLM-FT LEWIS  NOT AVBL                                               
TACOMA NARROWS CLOUDY    47  38  71 CALM      30.28R                  
$$
 
WAZ001-503-506-510-514-515-240900-
NORTH INTERIOR
  
CITY           SKY/WX    TMP DP  RH WIND       PRES   REMARKS
BELLINGHAM     MOCLDY    48  39  71 S3        30.25R                  
FRIDAY HARBOR  PTCLDY    45  38  76 CALM      30.27R                  
EASTSOUND      CLOUDY    46  43  87 CALM      30.25R                  
PORT ANGELES   PTCLDY    43  36  76 W9        30.28R                  
EDIZ HOOK      FAIR      47  38  72 SW9       30.28R                  
PORT TOWNSEND  MOCLDY    46  37  71 W6G13     30.27R                  
NAS WHIDBEY    PTCLDY    50  42  74 W16       30.30R                  
ARLINGTON      PTCLDY    45  39  79 N3        30.29R                  
BURLINGTON       N/A    N/A N/A N/A MISG        N/A                   
$$
 
WAZ020-022-039-040-504-511-512-240900-
SOUTHWEST INTERIOR
  
CITY           SKY/WX    TMP DP  RH WIND       PRES   REMARKS
SHELTON        CLEAR     37  33  85 CALM      30.25R                  
OLYMPIA        CLOUDY    44  37  76 CALM      30.27R                  
CHEHALIS       CLOUDY    41  39  93 CALM      30.28R                  
KELSO          CLOUDY    47  39  74 NW5       30.30R                  
VANCOUVER      CLOUDY    49  36  61 NW10      30.28R                  
SCAPPOOSE, OR  PTCLDY    49  36  61 NW7       30.28R                  
PORTLAND, OR   CLOUDY    50  36  58 NW18G24   30.28R                  
$$
 
WAZ021-516-517-240900-
WASHINGTON COAST
  
CITY           SKY/WX    TMP DP  RH WIND       PRES   REMARKS
FORKS          CLOUDY    47  40  76 NW5       30.30S                  
HOQUIAM        CLEAR     45  38  76 NW7       30.29R                  
ASTORIA, OR    CLOUDY    49  36  61 NW13      30.30R                  
$$
 
WAZ019-023-024-040-567>569-240900-
CASCADE MOUNTAINS AND COLUMBIA GORGE
  
CITY           SKY/WX    TMP DP  RH WIND       PRES   REMARKS
STAMPEDE PASS  FOG       36  34  92 VRB5      30.15S VSB 1/2          
TROUTDALE, OR  CLOUDY    50  38  63 W5        30.27R                  
HOOD RIVER, OR PTSUNNY   50  41  71 MISG      30.18R                  
THE DALLES, OR PTCLDY    55  44  66 NW16G22   30.14R                  
$$

WAZ026-027-041>044-520-521-240900-
EAST SLOPES
  
CITY           SKY/WX    TMP DP  RH WIND       PRES   REMARKS
OMAK           PTCLDY    51  32  48 N15       30.04R                  
WENATCHEE      MOCLDY    51  33  50 CALM      30.08R                  
ELLENSBURG     PTCLDY    49  35  58 NW24G31   30.10S                  
YAKIMA         MOCLDY    48  35  60 W3        30.11R                  
SUNNYSIDE ARPT CLOUDY    53  38  58 W7        30.11R                  
YAKIMA TC      FAIR      49  32  51 NW6       30.10R                  
$$

WAZ028-034-035-240900-
COLUMBIA BASIN
  
CITY           SKY/WX    TMP DP  RH WIND       PRES   REMARKS
EPHRATA        CLOUDY    54  30  40 VRB3      30.03R                  
MOSES LAKE     CLOUDY    54  36  50 SW6       30.05R                  
PASCO          CLOUDY    58  39  49 CALM      30.10R                  
RICHLAND ARPT  CLOUDY    56  42  58 CALM      30.10                   
HERMISTON, OR  CLOUDY    59  48  67 SW12      30.10R                  
$$

WAZ036>038-240900-
NORTHEAST WASHINGTON
  
CITY           SKY/WX    TMP DP  RH WIND       PRES   REMARKS
SPOKANE GEIGER MOCLDY    49  33  54 SW17      30.00R                  
SPOKANE FELTS  PTCLDY    52  34  50 VRB3      30.00R                  
FAIRCHILD AFB  MOCLDY    46  35  67 SW16      29.99S                  
COEURDALENE,ID MOCLDY    49  35  58 W6        30.00R                  
DEER PARK      PTCLDY    45  35  68 SE6       29.98R                  
$$

WAZ029>033-240900-
SOUTHEAST WASHINGTON
  
CITY           SKY/WX    TMP DP  RH WIND       PRES   REMARKS
PULLMAN        CLOUDY    52  39  61 SW10      30.08R                  
LEWISTON, ID   CLOUDY    59  40  49 NW7       30.05S                  
WALLA WALLA    CLOUDY    54  40  59 SW7       30.10R                  
PENDLETON, OR  CLOUDY    56  46  69 W14       30.11R                  
$$